Weather History for Alva, OK

Change the Weather History Date:

Thursday, February 7, 2013

  Actual Average Record
Temperature  
Mean Temperature 46 °F -  
Max Temperature 57 °F 46 °F 73 °F (1990)
Min Temperature 35 °F 22 °F 0 °F (2003)
Degree Days  
Heating Degree Days 19    
Moisture  
Dew Point 39 °F    
Average Humidity 68    
Maximum Humidity 100    
Minimum Humidity 33    
Precipitation  
Precipitation 0.00 in - - ()
Sea Level Pressure  
Sea Level Pressure 30.00 in    
Wind  
Wind Speed 13 mph (North)    
Max Wind Speed 24 mph    
Max Gust Speed 33 mph    
Visibility 9 miles    
Events Rain    
Averages and records for this station are not official NWS values.
T = Trace of Precipitation, MM = Missing Value Source: NWS Daily Summary

Daily Weather History Graph

Daily Weather History Graph

Search for Another Location

Airport:

Trip Planner

Search our weather history database for the weather conditions in past years. The results will help you decide how hot, cold, wet, or windy it might be!

Date:

Astronomy

Feb. 07, 2013 Rise Set
Actual Time 7:31 AM CST 6:07 PM CST
Civil Twilight 7:04 AM CST 6:33 PM CST
Nautical Twilight 6:33 AM CST 7:04 PM CST
Astronomical Twilight 6:03 AM CST 7:34 PM CST
Moon 5:09 AM CST (2/7) 3:35 PM CST (2/7)
Length of Visible Light 11h 29m
Length of Day
10h 35m
Waning Crescent, 9% of the Moon is Illuminated
Feb 7
Waning Crescent
Feb 10
New
Feb 17
First Quarter
Feb 25
Full
Mar 4
Last Quarter

Hourly Weather History & Observations

Time (CST) Temp. Windchill Dew Point Humidity Pressure Visibility Wind Dir Wind Speed Gust Speed Precip Events Conditions
12:10 AM 57.2 °F - 53.6 °F 88% 29.79 in 5.0 mi South 15.0 mph 23.0 mph N/A   Overcast
12:50 AM 57.2 °F - 53.6 °F 88% 29.79 in 8.0 mi South 17.3 mph 23.0 mph N/A   Overcast
1:10 AM 57.2 °F - 53.6 °F 88% 29.79 in 10.0 mi South 17.3 mph 23.0 mph N/A   Overcast
1:30 AM 57.2 °F - 53.6 °F 88% 29.78 in 9.0 mi South 16.1 mph - N/A   Overcast
1:50 AM 57.2 °F - 53.6 °F 88% 29.78 in 10.0 mi SSE 12.7 mph - N/A   Overcast
2:10 AM 57.2 °F - 53.6 °F 88% 29.78 in 8.0 mi SSE 12.7 mph - N/A   Overcast
2:30 AM 57.2 °F - 53.6 °F 88% 29.78 in 9.0 mi South 10.4 mph - N/A   Overcast
2:50 AM 57.2 °F - 53.6 °F 88% 29.78 in 9.0 mi South 8.1 mph - N/A   Overcast
3:10 AM 57.2 °F - 53.6 °F 88% 29.79 in 10.0 mi South 4.6 mph - N/A   Overcast
3:30 AM 57.2 °F - 53.6 °F 88% 29.80 in 10.0 mi WNW 3.5 mph - N/A   Overcast
3:50 AM 57.2 °F - 53.6 °F 88% 29.80 in 10.0 mi NW 6.9 mph - N/A   Overcast
4:10 AM 57.2 °F - 53.6 °F 88% 29.80 in 10.0 mi West 4.6 mph - N/A   Overcast
4:30 AM 57.2 °F - 53.6 °F 88% 29.80 in 10.0 mi North 3.5 mph - N/A   Overcast
4:50 AM 55.4 °F - 53.6 °F 94% 29.81 in 7.0 mi North 6.9 mph - N/A   Overcast
5:10 AM 55.4 °F - 53.6 °F 94% 29.81 in 7.0 mi NNE 6.9 mph - N/A   Overcast
5:30 AM 55.4 °F - 53.6 °F 94% 29.82 in 5.0 mi NNE 9.2 mph - N/A   Overcast
5:50 AM 53.6 °F - 53.6 °F 100% 29.82 in 5.0 mi NNE 6.9 mph - N/A   Overcast
6:10 AM 53.6 °F - 53.6 °F 100% 29.83 in 5.0 mi NE 6.9 mph - N/A   Overcast
6:30 AM 53.6 °F - 53.6 °F 100% 29.83 in 5.0 mi NNE 8.1 mph - N/A   Overcast
6:50 AM 53.6 °F - 53.6 °F 100% 29.85 in 4.0 mi NNW 13.8 mph 17.3 mph N/A   Overcast
7:10 AM 53.6 °F - 53.6 °F 100% 29.87 in 5.0 mi NNW 12.7 mph 23.0 mph N/A Rain Light Rain
7:30 AM 53.6 °F - 50.0 °F 88% 29.88 in 10.0 mi North 15.0 mph 21.9 mph N/A   Overcast
7:50 AM 53.6 °F - 50.0 °F 88% 29.90 in 10.0 mi North 17.3 mph 21.9 mph N/A   Overcast
8:10 AM 53.6 °F - 50.0 °F 88% 29.92 in 10.0 mi North 16.1 mph 21.9 mph N/A   Overcast
8:30 AM 53.6 °F - 48.2 °F 82% 29.93 in 10.0 mi NNE 16.1 mph 25.3 mph N/A   Overcast
8:50 AM 51.8 °F - 48.2 °F 88% 29.94 in 10.0 mi NNE 20.7 mph 26.5 mph N/A Rain Light Rain
9:10 AM 51.8 °F - 48.2 °F 88% 29.95 in 8.0 mi North 17.3 mph 21.9 mph N/A   Overcast
9:30 AM 50.0 °F - 48.2 °F 94% 29.97 in 5.0 mi North 21.9 mph 28.8 mph N/A   Overcast
10:10 AM 48.2 °F - 44.6 °F 87% 30.01 in 7.0 mi North 21.9 mph 27.6 mph N/A   Overcast
10:30 AM 48.2 °F - 41.0 °F 76% 30.02 in 7.0 mi NNW 21.9 mph 27.6 mph N/A Rain Light Rain
10:50 AM 46.4 °F 39.0 °F 39.2 °F 76% 30.04 in 8.0 mi North 19.6 mph 29.9 mph N/A Rain Light Rain
11:10 AM 46.4 °F 39.8 °F 41.0 °F 81% 30.05 in 7.0 mi North 16.1 mph 25.3 mph N/A Rain Light Rain
11:30 AM 46.4 °F 39.5 °F 41.0 °F 81% 30.03 in 10.0 mi North 17.3 mph 24.2 mph N/A   Mostly Cloudy
11:50 AM 48.2 °F - 37.4 °F 66% 30.04 in 10.0 mi North 20.7 mph 28.8 mph N/A   Partly Cloudy
12:10 PM 46.4 °F 39.2 °F 35.6 °F 66% 30.05 in 10.0 mi North 18.4 mph 21.9 mph N/A   Clear
12:30 PM 48.2 °F - 35.6 °F 62% 30.04 in 10.0 mi North 19.6 mph 27.6 mph N/A   Partly Cloudy
12:50 PM 51.8 °F - 35.6 °F 54% 30.04 in 10.0 mi North 15.0 mph 26.5 mph N/A   Partly Cloudy
1:10 PM 51.8 °F - 33.8 °F 50% 30.04 in 10.0 mi North 19.6 mph 27.6 mph N/A   Partly Cloudy
1:30 PM 53.6 °F - 32.0 °F 44% 30.03 in 10.0 mi North 17.3 mph 26.5 mph N/A   Partly Cloudy
1:50 PM 53.6 °F - 32.0 °F 44% 30.04 in 10.0 mi North 18.4 mph 32.2 mph N/A   Clear
2:10 PM 57.2 °F - 32.0 °F 38% 30.03 in 10.0 mi NNE 24.2 mph 28.8 mph N/A   Clear
2:30 PM 57.2 °F - 32.0 °F 38% 30.04 in 10.0 mi North 20.7 mph 33.4 mph N/A   Clear
2:50 PM 57.2 °F - 32.0 °F 38% 30.04 in 10.0 mi North 23.0 mph 28.8 mph N/A   Clear
3:10 PM 57.2 °F - 32.0 °F 38% 30.06 in 10.0 mi North 20.7 mph 33.4 mph N/A   Clear
3:30 PM 57.2 °F - 32.0 °F 38% 30.06 in 10.0 mi North 19.6 mph 31.1 mph N/A   Clear
3:50 PM 55.4 °F - 28.4 °F 36% 30.06 in 10.0 mi North 23.0 mph 28.8 mph N/A   Clear
4:10 PM 55.4 °F - 28.4 °F 36% 30.06 in 10.0 mi NNE 17.3 mph 23.0 mph N/A   Clear
4:30 PM 57.2 °F - 28.4 °F 33% 30.07 in 10.0 mi North 16.1 mph 25.3 mph N/A   Clear
4:50 PM 55.4 °F - 28.4 °F 36% 30.08 in 10.0 mi North 17.3 mph 25.3 mph N/A   Clear
5:10 PM 55.4 °F - 26.6 °F 33% 30.08 in 10.0 mi North 19.6 mph - N/A   Clear
5:30 PM 53.6 °F - 26.6 °F 35% 30.09 in 10.0 mi NNE 15.0 mph 20.7 mph N/A   Clear
5:50 PM 53.6 °F - 26.6 °F 35% 30.10 in 10.0 mi North 13.8 mph - N/A   Clear
6:10 PM 50.0 °F - 26.6 °F 40% 30.11 in 10.0 mi North 12.7 mph - N/A   Clear
6:30 PM 50.0 °F - 26.6 °F 40% 30.12 in 10.0 mi North 9.2 mph - N/A   Clear
6:50 PM 48.2 °F - 26.6 °F 43% 30.13 in 10.0 mi North 10.4 mph - N/A   Clear
7:10 PM 44.6 °F 40.7 °F 26.6 °F 49% 30.14 in 10.0 mi North 6.9 mph - N/A   Clear
7:30 PM 42.8 °F 38.0 °F 26.6 °F 53% 30.15 in 10.0 mi North 8.1 mph - N/A   Clear
7:50 PM 42.8 °F 37.5 °F 26.6 °F 53% 30.15 in 10.0 mi North 9.2 mph - N/A   Clear
8:10 PM 41.0 °F 35.8 °F 26.6 °F 57% 30.16 in 10.0 mi North 8.1 mph - N/A   Clear
8:30 PM 41.0 °F 35.8 °F 26.6 °F 57% 30.17 in 10.0 mi North 8.1 mph - N/A   Clear
8:50 PM 41.0 °F 37.1 °F 26.6 °F 57% 30.18 in 10.0 mi North 5.8 mph - N/A   Clear
9:10 PM 41.0 °F 37.1 °F 26.6 °F 57% 30.19 in 10.0 mi NNW 5.8 mph - N/A   Clear
9:30 PM 39.2 °F 34.2 °F 26.6 °F 61% 30.19 in 10.0 mi North 6.9 mph - N/A   Clear
9:50 PM 39.2 °F 33.6 °F 26.6 °F 61% 30.21 in 10.0 mi North 8.1 mph - N/A   Clear
10:10 PM 39.2 °F 35.0 °F 26.6 °F 61% 30.21 in 10.0 mi NNE 5.8 mph - N/A   Clear
10:30 PM 37.4 °F 34.9 °F 24.8 °F 60% 30.21 in 10.0 mi North 3.5 mph - N/A   Clear
10:50 PM 39.2 °F 37.0 °F 26.6 °F 61% 30.21 in 10.0 mi NE 3.5 mph - N/A   Clear
11:10 PM 35.6 °F 32.8 °F 24.8 °F 65% 30.22 in 10.0 mi NNW 3.5 mph - N/A   Clear
11:30 PM 35.6 °F 31.7 °F 26.6 °F 70% 30.21 in 10.0 mi North 4.6 mph - N/A   Clear
11:50 PM 35.6 °F 29.9 °F 24.8 °F 65% 30.22 in 10.0 mi North 6.9 mph - N/A   Clear